Location: Unspecified
(0.0000°N, 0.0000°E)
Time: 22:38:34
(UTC+00:00)

Altair 2 - Pass Details

Date: 08 November 2024
Orbit: 1017 x 1126 km, 90.0° (Epoch: 05 December)

Event Time Altitude Azimuth Distance (km) Brightness Sun altitude
Exits shadow 02:47:10 19° 172° (S) 2,366 10.7 -41.9°
Drops below altitude 10° 02:48:50 10° 175° (S) 2,957 11.2 -41.5°
Sets 02:51:25 0° 178° (S) 3,902 11.9 -40.9°
